• In Hungary
  • List of Countries
  • For 7 days
  • Water Temperature
  • Satellite Maps
  • Weather Map
  • News
  • Weather Widgets
  • user-avatar
    Login

    Hourly Weather Germering

    Today, 22 October, Monday

    Time Temperature Precipitation Wind Pressure Humidity
    00:00 +4°C° 0 mm 2 mps 721 mmHg 85%
    01:00 +4°C° 0 mm 2 mps 720 mmHg 85%
    02:00 +4°C° 0 mm 2 mps 720 mmHg 86%
    03:00 +3°C° 0 mm 2 mps 720 mmHg 86%
    04:00 +3°C° 0 mm 2 mps 720 mmHg 87%
    05:00 +4°C° 0 mm 1 mps 720 mmHg 87%
    06:00 +4°C° 0 mm 1 mps 720 mmHg 87%
    07:00 +3°C° 0 mm 1 mps 721 mmHg 84%
    08:00 +5°C° 0 mm 2 mps 720 mmHg 78%
    09:00 +7°C° 0 mm 2 mps 720 mmHg 71%
    10:00 +9°C° 0 mm 2 mps 720 mmHg 65%
    11:00 +10°C° 0 mm 2 mps 720 mmHg 62%
    12:00 +12°C° 0 mm 2 mps 720 mmHg 60%
    13:00 +13°C° 0 mm 2 mps 720 mmHg 58%
    14:00 +13°C° 0 mm 2 mps 720 mmHg 61%
    15:00 +12°C° 0 mm 2 mps 720 mmHg 64%
    16:00 +12°C° 0 mm 1 mps 721 mmHg 67%
    17:00 +10°C° 0 mm 1 mps 721 mmHg 73%
    18:00 +9°C° 0 mm 1 mps 722 mmHg 78%
    19:00 +7°C° 0 mm 1 mps 722 mmHg 84%
    20:00 +7°C° 0 mm 1 mps 722 mmHg 84%
    21:00 +7°C° 0 mm 1 mps 723 mmHg 84%
    22:00 +8°C° 0 mm 1 mps 723 mmHg 85%
    23:00 +7°C° 0 mm 1 mps 723 mmHg 87%

    Tomorrow, 23 October, Tuesday

    Time Temperature Precipitation Wind Pressure Humidity
    00:00 +7°C° 0 mm 1 mps 723 mmHg 90%
    01:00 +7°C° 0 mm 1 mps 723 mmHg 92%
    02:00 +6°C° 0 mm 1 mps 723 mmHg 93%
    03:00 +6°C° 0 mm 1 mps 723 mmHg 93%
    04:00 +6°C° 0 mm 1 mps 722 mmHg 94%
    05:00 +6°C° 0 mm 1 mps 722 mmHg 93%
    06:00 +5°C° 0 mm 2 mps 723 mmHg 93%
    07:00 +5°C° 0 mm 2 mps 723 mmHg 93%
    08:00 +6°C° 0 mm 2 mps 722 mmHg 87%
    09:00 +8°C° 0 mm 3 mps 722 mmHg 81%
    10:00 +10°C° 0 mm 3 mps 722 mmHg 75%
    11:00 +11°C° 0 mm 4 mps 722 mmHg 71%
    12:00 +12°C° 0 mm 4 mps 721 mmHg 67%
    13:00 +13°C° 0 mm 4 mps 721 mmHg 63%
    14:00 +12°C° 0 mm 4 mps 721 mmHg 64%
    15:00 +12°C° 0 mm 4 mps 720 mmHg 65%
    16:00 +12°C° 0 mm 4 mps 720 mmHg 66%
    17:00 +11°C° 0.1 mm 4 mps 720 mmHg 68%
    18:00 +10°C° 0.1 mm 4 mps 720 mmHg 69%
    19:00 +10°C° 0.1 mm 4 mps 721 mmHg 71%
    20:00 +9°C° 0.2 mm 5 mps 721 mmHg 70%
    21:00 +8°C° 0.2 mm 5 mps 720 mmHg 69%
    22:00 +8°C° 0.2 mm 5 mps 720 mmHg 68%
    23:00 +8°C° 0.1 mm 6 mps 720 mmHg 69%

    Day after tomorrow, 24 October, Wednesday

    Time Temperature Precipitation Wind Pressure Humidity
    00:00 +8°C° 0.1 mm 6 mps 720 mmHg 69%
    01:00 +8°C° 0.1 mm 6 mps 720 mmHg 69%
    02:00 +8°C° 0 mm 6 mps 719 mmHg 69%
    03:00 +8°C° 0 mm 6 mps 719 mmHg 68%
    04:00 +9°C° 0 mm 7 mps 719 mmHg 68%
    05:00 +8°C° 0.2 mm 6 mps 719 mmHg 72%
    06:00 +8°C° 0.2 mm 6 mps 719 mmHg 75%
    07:00 +8°C° 0.2 mm 6 mps 718 mmHg 79%
    08:00 +8°C° 0.7 mm 6 mps 718 mmHg 83%
    09:00 +8°C° 0.7 mm 6 mps 718 mmHg 86%
    10:00 +8°C° 0.7 mm 6 mps 718 mmHg 89%
    11:00 +8°C° 0.8 mm 6 mps 718 mmHg 90%
    12:00 +8°C° 0.8 mm 6 mps 718 mmHg 91%
    13:00 +9°C° 0.8 mm 6 mps 718 mmHg 91%
    14:00 +9°C° 0.6 mm 6 mps 718 mmHg 92%
    15:00 +9°C° 0.6 mm 6 mps 718 mmHg 92%
    16:00 +9°C° 0.6 mm 5 mps 718 mmHg 92%
    17:00 +9°C° 0.4 mm 5 mps 718 mmHg 93%
    18:00 +9°C° 0.4 mm 5 mps 719 mmHg 93%
    19:00 +9°C° 0.4 mm 5 mps 719 mmHg 93%
    20:00 +9°C° 0.2 mm 5 mps 719 mmHg 93%
    21:00 +10°C° 0.2 mm 4 mps 719 mmHg 94%
    22:00 +10°C° 0.2 mm 4 mps 719 mmHg 94%
    23:00 +10°C° 0.1 mm 4 mps 719 mmHg 95%

    25 October, Thursday

    Time Temperature Precipitation Wind Pressure Humidity
    00:00 +10°C° 0.1 mm 3 mps 719 mmHg 95%
    01:00 +9°C° 0.1 mm 3 mps 719 mmHg 95%
    02:00 +9°C° 0 mm 3 mps 718 mmHg 95%
    03:00 +9°C° 0 mm 3 mps 718 mmHg 96%
    04:00 +8°C° 0 mm 3 mps 718 mmHg 96%
    05:00 +8°C° 0 mm 3 mps 717 mmHg 96%
    06:00 +7°C° 0 mm 3 mps 717 mmHg 96%
    07:00 +7°C° 0 mm 3 mps 717 mmHg 96%
    08:00 +9°C° 0 mm 3 mps 717 mmHg 92%
    09:00 +10°C° 0 mm 3 mps 717 mmHg 88%
    10:00 +12°C° 0 mm 3 mps 717 mmHg 85%
    11:00 +12°C° 0 mm 3 mps 717 mmHg 81%
    12:00 +13°C° 0 mm 3 mps 716 mmHg 78%
    13:00 +13°C° 0 mm 3 mps 716 mmHg 74%
    14:00 +13°C° 0 mm 3 mps 716 mmHg 76%
    15:00 +12°C° 0 mm 3 mps 715 mmHg 78%
    16:00 +13°C° 0 mm 2 mps 715 mmHg 80%
    17:00 +12°C° 0 mm 2 mps 715 mmHg 84%
    18:00 +10°C° 0 mm 1 mps 715 mmHg 88%
    19:00 +9°C° 0 mm 1 mps 715 mmHg 92%
    20:00 +9°C° 0 mm 1 mps 715 mmHg 92%
    21:00 +8°C° 0 mm 1 mps 715 mmHg 92%
    22:00 +7°C° 0 mm 0 mps 715 mmHg 92%
    23:00 +7°C° 0 mm 0 mps 715 mmHg 92%

    26 October, Friday

    Time Temperature Precipitation Wind Pressure Humidity
    00:00 +6°C° 0 mm 0 mps 714 mmHg 93%
    01:00 +6°C° 0 mm 0 mps 713 mmHg 93%
    02:00 +6°C° 0 mm 1 mps 713 mmHg 92%
    03:00 +6°C° 0 mm 1 mps 712 mmHg 92%
    04:00 +6°C° 0 mm 1 mps 712 mmHg 91%
    05:00 +6°C° 0 mm 1 mps 712 mmHg 90%
    06:00 +6°C° 0 mm 1 mps 711 mmHg 89%
    07:00 +5°C° 0 mm 1 mps 711 mmHg 88%
    08:00 +8°C° 0 mm 1 mps 711 mmHg 80%
    09:00 +10°C° 0 mm 1 mps 710 mmHg 73%
    10:00 +12°C° 0 mm 1 mps 710 mmHg 66%
    11:00 +14°C° 0 mm 1 mps 710 mmHg 61%
    12:00 +15°C° 0 mm 1 mps 709 mmHg 57%
    13:00 +16°C° 0 mm 1 mps 708 mmHg 52%
    14:00 +16°C° 0 mm 1 mps 708 mmHg 57%
    15:00 +15°C° 0 mm 1 mps 708 mmHg 62%
    16:00 +14°C° 0 mm 1 mps 707 mmHg 67%
    17:00 +13°C° 0 mm 1 mps 707 mmHg 71%
    18:00 +11°C° 0 mm 1 mps 707 mmHg 75%
    19:00 +9°C° 0 mm 1 mps 707 mmHg 80%
    20:00 +9°C° 0 mm 1 mps 707 mmHg 78%
    21:00 +8°C° 0 mm 2 mps 707 mmHg 76%
    22:00 +8°C° 0 mm 2 mps 707 mmHg 74%
    23:00 +8°C° 0 mm 2 mps 707 mmHg 75%

    27 October, Saturday

    Time Temperature Precipitation Wind Pressure Humidity
    00:00 +9°C° 0 mm 1 mps 706 mmHg 75%
    01:00 +9°C° 0 mm 1 mps 706 mmHg 76%
    02:00 +9°C° 0.5 mm 1 mps 706 mmHg 80%
    03:00 +9°C° 0.5 mm 1 mps 705 mmHg 85%
    04:00 +9°C° 0.5 mm 1 mps 705 mmHg 89%
    05:00 +9°C° 0.7 mm 1 mps 705 mmHg 91%
    06:00 +8°C° 0.7 mm 1 mps 704 mmHg 92%
    07:00 +7°C° 0.7 mm 0 mps 704 mmHg 94%
    08:00 +9°C° 0.7 mm 1 mps 703 mmHg 93%
    09:00 +9°C° 0.7 mm 1 mps 703 mmHg 93%
    10:00 +9°C° 0.7 mm 1 mps 703 mmHg 92%
    11:00 +8°C° 1.6 mm 2 mps 703 mmHg 93%
    12:00 +7°C° 1.6 mm 2 mps 702 mmHg 94%
    13:00 +7°C° 1.6 mm 3 mps 702 mmHg 95%
    14:00 +7°C° 1.5 mm 3 mps 702 mmHg 95%
    15:00 +5°C° 1.5 mm 3 mps 702 mmHg 95%
    16:00 +6°C° 1.5 mm 2 mps 702 mmHg 95%
    17:00 +6°C° 1.4 mm 2 mps 702 mmHg 95%
    18:00 +4°C° 1.4 mm 3 mps 702 mmHg 95%
    19:00 +4°C° 1.4 mm 3 mps 702 mmHg 95%
    20:00 +4°C° 1.5 mm 3 mps 702 mmHg 95%
    21:00 +3°C° 1.5 mm 3 mps 702 mmHg 95%
    22:00 +3°C° 1.5 mm 3 mps 702 mmHg 95%
    23:00 +3°C° 1.6 mm 3 mps 702 mmHg 95%

    28 October, Sunday

    Time Temperature Precipitation Wind Pressure Humidity
    00:00 +2°C° 1.6 mm 3 mps 702 mmHg 95%
    01:00 +2°C° 1.6 mm 3 mps 702 mmHg 95%
    02:00 +3°C° 1.1 mm 2 mps 702 mmHg 95%
    03:00 +3°C° 1.1 mm 2 mps 702 mmHg 95%
    04:00 +3°C° 1.1 mm 2 mps 702 mmHg 95%
    05:00 +3°C° 1 mm 2 mps 703 mmHg 96%
    06:00 +2°C° 1 mm 2 mps 703 mmHg 96%
    07:00 +2°C° 1 mm 2 mps 703 mmHg 96%
    08:00 +2°C° 0.6 mm 2 mps 704 mmHg 95%
    09:00 +3°C° 0.6 mm 2 mps 704 mmHg 94%
    10:00 +3°C° 0.6 mm 2 mps 705 mmHg 93%
    11:00 +3°C° 0.2 mm 2 mps 705 mmHg 91%
    12:00 +4°C° 0.2 mm 2 mps 706 mmHg 88%
    13:00 +4°C° 0.2 mm 2 mps 706 mmHg 86%
    14:00 +4°C° 0.2 mm 2 mps 706 mmHg 87%
    15:00 +4°C° 0.2 mm 2 mps 707 mmHg 88%
    16:00 +4°C° 0.2 mm 2 mps 707 mmHg 90%
    17:00 +3°C° 0 mm 2 mps 708 mmHg 90%
    18:00 +3°C° 0 mm 2 mps 709 mmHg 91%
    19:00 +2°C° 0 mm 2 mps 709 mmHg 92%
    20:00 +2°C° 0 mm 2 mps 710 mmHg 91%
    21:00 +1°C° 0 mm 2 mps 710 mmHg 91%
    22:00 +1°C° 0 mm 2 mps 711 mmHg 90%
    23:00 -1°C° 0 mm 2 mps 711 mmHg 90%
    Show more